Content
SEND FEEDBACK

Daily
Averages
Monthly
Summary
United States of America

MOUNT SHASTA, CALIFORNIA


Home > North America > United States > California
Elevation: 3679 feet     Latitude: 41 19N     Longitude: 122 19W

WEATHER
 
SELECT A DAY
Number of Records: 234,024;   Date Range: 1/1/95 - 10/19/14
 
SHARE

PRINT THIS DATA

[ ← Previous Day ]
WEATHER ALMANAC - AUGUST 18, 2014
[ Next Day → ]
[ °C ]   °F
Weather ElementAverageHighLow
Temperature71.2 °F89.1 °F (1:56 pm)54 °F (10:56 pm)
Dewpoint43.3 °F48.9 °F (11:56 am)34 °F (4:56 pm)
Humidity40.5 %64 % (4:56 am)15 % (1:56 pm)
Barometer29.91 in29.98 in (9:56 pm)29.84 in (3:56 pm)
Wind Speed1.5 mph4.6 mph (9:56 am)
Weather ElementAverage
Visibility9.3 mi
Wind DirectionNNE (21.3 °)

Weather ElementTotal
Precipitation---
Cooling Degree Days6.6 (Base 65)
Growing Degree Days21.6 (Base 50)
Averaged from 23 records on August 18, 2014
WEATHER CONDITIONS BREAKOUT
WIND DIRECTION BREAKOUT
WEATHER BY HOUR - AUGUST 18, 2014
[ °C ]   °F
Local TimeTemperatureDewpointHumidityBarometerVisibilityWind DirectionWind SpeedGust SpeedPrecipitationEventsConditions
12:56 AM62.1 °F42.1 °F48 %29.98 in10.0 miENE (60°)4.6 mphClear
1:56 AM61.0 °F43.0 °F52 %29.97 in10.0 miCalmClear
2:56 AM57.0 °F44.1 °F62 %29.96 in10.0 miCalmClear
3:56 AM57.9 °F42.1 °F56 %29.96 in10.0 miENE (70°)3.5 mphClear
4:56 AM55.9 °F41.0 °F57 %29.96 in10.0 miCalmClear
5:56 AM54.0 °F41.0 °F62 %29.96 in10.0 miNE (40°)3.5 mphClear
6:56 AM54.0 °F42.1 °F64 %29.97 in10.0 miCalmClear
7:56 AM62.1 °F46.9 °F58 %29.97 in10.0 miCalmClear
8:56 AM69.1 °F48.0 °F47 %29.96 in10.0 miCalmClear
9:56 AM75.9 °F48.9 °F38 %29.92 in10.0 miCalmClear
10:56 AM80.1 °F46.9 °F31 %29.91 in10.0 miCalmClear
11:56 AM82.0 °F45.0 °F27 %29.90 in10.0 miCalmClear
12:56 PM86.0 °F45.0 °F24 %29.88 in10.0 miCalmClear
1:56 PM87.1 °F45.0 °F23 %29.87 in10.0 miCalmClear
3:56 PM89.1 °F37.0 °F16 %29.84 in10.0 miVariable4.6 mphClear
4:56 PM87.1 °F34.0 °F15 %29.84 in10.0 miCalmClear
5:56 PM84.9 °F36.0 °F17 %29.84 in10.0 miCalmClear
6:56 PM81.0 °F37.9 °F21 %29.85 in10.0 miCalmClear
7:56 PM77.0 °F45.0 °F32 %29.85 in10.0 miVariable4.6 mphClear
8:56 PM71.1 °F46.9 °F42 %29.87 in8.0 miVariable3.5 mphClear
9:56 PM70.0 °F46.0 °F42 %29.87 in7.0 miVariable3.5 mphClear
10:56 PM69.1 °F46.0 °F44 %29.86 in5.0 miNW (320°)3.5 mphHaze
11:56 PM64.0 °F46.9 °F54 %29.87 in5.0 miVariable3.5 mphHaze
Hourly data recorded from KMHS, located miles away from Mount Shasta, California







STORIES FROM OUR PARTNERS